#timestamp,LO_Frequency,Hit,StdDev 
1676059215.1,286046989.9,N
1676059235.8,286046986.2,N
1676059255.7,286046982.5,N
1676059275.5,286046981.5,N
1676059295.4,286046980.2,N
1676059315.2,286046980.4,N
1676059335.0,286046979.9,N
1676059335.9,286046979.9,N
1676059355.8,286046978.3,N
1676059375.6,286046974.2,Y
1676059395.4,286046986.3,P
1676059415.3,286046982.4,P
1676059435.1,286046983.1,P
1676059455.9,286046980.8,Y
1676059475.7,286046995.9,P
1676059495.5,286046993.6,N
1676059515.4,286046994.1,N
1676059535.2,286046991.9,N
1676059555.0,286046994.6,N
1676059555.9,286046994.6,N
1676059575.8,286046993.7,N
1676059595.6,286046995.8,N
1676059615.5,286046995.7,N
1676059635.3,286046996.0,N
1676059655.1,286046996.2,N
1676059675.9,286046996.4,N
1676059695.7,286046991.8,N
1676059715.5,286046992.2,N
1676059735.4,286046991.9,Y
1676059755.2,286046997.3,P
1676059775.1,286046997.0,N
1676059776.0,286046997.0,N
1676059795.8,286047000.8,N
1676059815.6,286047000.0,N
1676059835.5,286047002.5,N
1676059855.3,286047002.2,N
1676059875.1,286047004.0,N
1676059895.9,286047002.3,N
1676059915.7,286047002.5,N
1676059935.6,286046999.9,N
1676059955.4,286047000.9,N
1676059975.2,286047000.4,N
1676059995.1,286047000.0,N
1676059996.0,286047000.0,N
1676060015.8,286047002.6,N
1676060035.6,286047001.4,N
1676060055.5,286047002.2,N
1676060075.3,286046998.2,N
1676060095.2,286046998.9,N
1676060115.9,286046998.0,N
1676060135.7,286046997.5,N
1676060155.6,286046993.4,N
1676060175.4,286046994.5,N
1676060195.2,286046996.2,N
1676060215.1,286046993.6,N
1676060216.0,286046993.6,N
1676060235.8,286046993.7,N
1676060255.7,286046993.8,N
1676060275.5,286046993.7,N
1676060295.3,286046998.0,N
1676060315.2,286046995.2,N
1676060335.0,286046994.1,N
1676060335.9,286046994.1,N
1676060355.8,286046995.8,N
1676060375.6,286046999.4,N
1676060395.4,286046999.6,N
1676060415.3,286046997.6,N
1676060435.1,286046998.7,N
1676060455.8,286046996.6,N
1676060475.7,286046997.2,N
1676060495.5,286047000.7,N
1676060515.4,286047000.4,N
1676060535.2,286046998.1,N
1676060555.0,286046998.5,N
1676060555.9,286046998.5,N
1676060575.8,286047000.8,N
1676060595.6,286047002.3,N
1676060615.4,286046998.4,N
1676060635.3,286046998.7,N
1676060655.1,286046998.0,N
1676060675.9,286046997.3,N
1676060695.7,286046996.7,N
1676060715.5,286046997.1,N
1676060735.4,286046997.9,N
1676060755.2,286046994.7,N
1676060775.0,286046993.6,N
1676060775.9,286046993.6,N
1676060795.8,286046999.4,N
1676060815.6,286047002.3,N
1676060835.5,286047002.1,N
1676060855.3,286047001.3,N
1676060875.1,286047001.6,N
1676060895.9,286047004.4,N
1676060915.7,286047002.1,N
1676060935.5,286047004.4,N
1676060955.4,286047004.0,N
1676060975.2,286046999.7,N
1676060995.1,286046998.4,N
1676060996.0,286046998.4,N
1676061015.8,286046997.3,N
1676061035.6,286046993.3,N
1676061055.5,286046994.1,N
1676061075.3,286046993.0,N
1676061095.1,286046990.3,N
1676061115.9,286046988.7,Y
1676061135.7,286046990.6,P
1676061155.6,286046992.0,N
1676061175.4,286046994.6,N
1676061195.2,286046995.4,N
1676061215.1,286046993.3,N
1676061216.0,286046993.3,N
1676061235.8,286046992.2,Y
1676061255.6,286047000.5,P
1676061275.5,286046998.5,N
1676061295.3,286046999.5,N
1676061315.2,286046997.1,N
1676061335.9,286046995.3,N
1676061355.7,286046995.1,N
1676061375.6,286046998.0,N
1676061395.4,286046997.8,N
1676061415.2,286046997.6,N
1676061435.1,286046995.0,N
1676061436.0,286046995.0,N
1676061455.8,286046999.6,N
1676061475.7,286046999.6,N
1676061495.5,286046996.7,N
1676061515.3,286046996.5,N
1676061535.2,286046997.0,N
1676061555.0,286046996.6,N
1676061555.9,286046996.6,N
1676061575.7,286046997.4,N
1676061595.6,286046997.9,N
1676061615.4,286046997.7,N
1676061635.3,286046997.4,N
1676061655.1,286046996.5,N
1676061656.0,286046996.5,N
1676061675.8,286046997.6,N
1676061695.7,286046998.0,N
1676061715.5,286046997.9,N
1676061735.3,286046996.7,N
1676061755.2,286046995.0,Y
1676061775.0,286046996.8,P
1676061775.9,286046996.8,P
1676061795.8,286046995.2,P
1676061815.6,286046997.4,Y
1676061835.4,286047002.2,P
1676061855.3,286047001.1,N
1676061875.1,286046999.8,N
1676061895.9,286047000.5,N
1676061915.7,286046998.2,N
1676061935.5,286047000.6,N
1676061955.4,286047000.4,N
1676061975.2,286047001.0,N
1676061995.0,286046999.9,N
1676061995.9,286046999.9,N
1676062015.8,286047001.2,N
1676062035.6,286046998.6,N
1676062055.5,286047000.6,N
1676062075.3,286047000.8,N
1676062095.1,286046999.1,N
1676062115.9,286046996.9,N
1676062135.7,286046999.1,N
1676062155.6,286046999.1,N
1676062175.4,286047002.8,N
1676062195.2,286047000.1,N
1676062215.1,286047001.1,N
1676062216.0,286047001.1,N
1676062235.8,286047000.9,N
1676062255.6,286047000.7,N
1676062275.5,286046998.3,N
1676062295.3,286047000.6,N
1676062315.2,286047002.1,N
1676062335.9,286046999.9,N
1676062355.7,286047002.6,N
1676062375.6,286047007.3,Y
1676062395.4,286047007.1,P
1676062415.2,286047003.5,N
1676062435.1,286047001.8,N
1676062436.0,286047001.8,N
1676062455.8,286047001.9,N
1676062475.7,286046999.8,N
1676062495.5,286046999.9,N
1676062515.3,286047003.5,N
1676062535.2,286047005.8,N
1676062555.0,286047005.1,N
1676062555.9,286047005.1,N
1676062575.7,286047003.3,N
1676062595.6,286047003.5,N
1676062615.4,286047003.5,N
1676062635.3,286047004.1,N
1676062655.1,286047003.0,N
1676062656.0,286047003.0,N
1676062675.8,286047001.3,N
1676062695.7,286047002.6,N
1676062715.5,286046999.9,N
1676062735.3,286047000.0,N
1676062755.2,286046999.7,N
1676062775.0,286047000.7,N
1676062775.9,286047000.7,N
1676062795.8,286046998.7,N
